Flag for U.S.A. Weather past 2 weeks in Bryan – College Station, Texas, U.S.A.

Now
57 °F

Clear.


Feels Like: 55 °F
Forecast: 52 / 71 °F
Wind: 8 mph from Southeast

Location: Easterwood Field


UV Index: 0 (Low)

Visibility: 10 mi


Pressure: 30.02 "Hg

Humidity: 74%

Dew point: 49 °F

Location of Bryan – College StationLocation

Historic Weather in Bryan – College Station

°F

Bryan – College Station temperature yesterday

Maximum temperature yesterday: 62 °F (at 4:53 PM)
Minimum temperature yesterday: 38 °F (at 6:53 AM)
Average temperature yesterday: 50 °F

Past Weeks' High & Low Weather Summary

 TemperatureHumidityPressure
High83 °F (Apr 10, 2:53 PM)97% (Apr 4, 12:53 AM)30.35 "Hg (Apr 4, 12:53 AM)
Low38 °F (Apr 15, 6:53 AM)20% (Apr 8, 4:53 PM)29.65 "Hg (Apr 13, 5:53 PM)
Average64 °F68%29.96 "Hg
* Reported Apr 1 10:53 PM — Apr 16 10:53 PM, Bryan – College Station, Weather by CustomWeather, © 2014

Note: Actual official high and low records may vary slightly from our data, if they occured in-between our weather recording intervals... More about our weather records

Advertising

Historic Weather Conditions — Data for Previous 24 hours

 ConditionsComfort  
Time TempWeatherWind HumidityBarometerVisibility
10:53 PM
Apr 16
57 °FClear.8 mph74%30.02 "Hg10 mi
9:53 PM59 °FClear.10 mph67%30.01 "Hg10 mi
8:53 PM60 °FPassing clouds.8 mph65%30.00 "Hg10 mi
7:53 PM62 °FSunny.9 mph58%29.99 "Hg10 mi
6:53 PM65 °FSunny.13 mph51%29.99 "Hg10 mi
5:53 PM67 °FPassing clouds.17 mph45%30.00 "Hg10 mi
4:53 PM67 °FSunny.14 mph45%30.00 "Hg10 mi
3:53 PM67 °FPassing clouds.18 mph45%30.01 "Hg10 mi
2:53 PM67 °FPassing clouds.18 mph49%30.06 "Hg10 mi
1:53 PM65 °FPassing clouds.16 mph49%30.08 "Hg10 mi
12:53 PM64 °FSunny.16 mph49%30.11 "Hg10 mi
11:53 AM61 °FSunny.15 mph50%30.15 "Hg10 mi
10:53 AM60 °FSunny.13 mph52%30.16 "Hg10 mi
9:53 AM57 °FSunny.15 mph51%30.16 "Hg10 mi
8:53 AM51 °FSunny.12 mph61%30.16 "Hg10 mi
7:53 AM45 °FClear.6 mph74%30.15 "Hg10 mi
6:53 AM42 °FClear.5 mph73%30.15 "Hg10 mi
5:53 AM43 °FClear.6 mph71%30.14 "Hg10 mi
4:53 AM42 °FClear.7 mph73%30.12 "Hg10 mi
3:53 AM44 °FClear.5 mph65%30.14 "Hg10 mi
2:53 AM46 °FClear.5 mph58%30.13 "Hg10 mi
1:53 AM45 °FClear.No wind65%30.14 "Hg10 mi
12:53 AM44 °FClear.No wind76%30.16 "Hg10 mi
11:53 PM
Apr 15
46 °FClear.No wind68%30.16 "Hg10 mi
Weather by CustomWeather, © 2014

See weather overview